Temp
76 76 76 76 76 76 75 76 77 77 77 78 79 78 74 79 78 78 78 78 77 77 78 76 76 77 77 75 72 70 70 69 67 69 71 73 72 72 73 73 74 74 73
78 78 78 75 76 75 74 74 75 76 76 78 78 77 77 77 76 76 76 77 76 77 78 77 77 77 76 75 73 71 71 71 69 68 70 69 70 72 73 73 73 75 73
75 75 71 71 71 72 73 73 73 73 74 76 76 76 76 76 76 77 72 71 72 76 76 78 77 77 75 74 74 72 71 72 71 70 68 69 70 71 71 72 72 72 74
71 70 69 69 71 71 72 72 72 72 72 73 75 75 75 77 76 75 71 69 69 71 74 76 79 78 76 74 73 73 72 71 71 70 69 68 69 71 70 69 68 70 71
69 68 67 68 69 69 69 70 71 70 72 71 72 74 74 74 76 73 72 69 69 69 69 72 78 79 76 75 76 75 74 73 70 70 68 68 68 68 68 69 68 69 70
67 67 68 68 67 68 69 69 69 70 69 70 71 72 73 75 71 66 71 69 68 68 69 71 77 74 74 71 71 74 76 73 71 72 68 67 68 68 69 68 68 67 65
66 67 67 67 67 67 67 68 68 68 68 69 70 71 72 72 65 65 66 69 69 69 69 71 74 79 73 76 69 70 71 71 73 74 71 70 68 69 69 69 68 67 67
66 66 67 66 66 67 67 67 68 68 67 67 69 70 70 69 62 60 63 72 66 66 67 69 71 76 74 76 73 72 72 73 73 77 75 71 72 72 72 71 70 70 69
66 65 65 65 64 64 65 66 67 67 67 67 68 69 69 69 60 59 62 69 70 68 68 72 72 74 69 65 74 73 72 72 69 67 68 70 70 67 71 71 69 67 66
64 63 63 63 64 64 65 65 65 65 67 67 67 69 67 68 60 57 60 66 66 67 69 71 65 71 64 60 72 71 69 72 73 70 66 65 66 66 65 71 69 67 65
64 63 62 62 63 65 65 63 65 65 65 65 65 65 64 62 62 55 55 64 67 66 67 68 71 62 59 57 58 71 72 71 68 69 69 68 68 68 69 69 69 68 66
62 61 61 62 63 64 64 64 65 63 63 63 64 64 65 64 58 56 55 56 60 65 68 68 66 57 55 54 56 59 58 64 69 69 68 67 68 68 69 69 69 69 69
60 60 60 62 63 62 63 62 63 63 63 60 60 62 63 64 62 54 56 56 56 63 63 60 53 51 51 55 54 55 62 69 68 68 66 66 66 67 68 67 67 67 67
58 58 60 60 61 62 63 63 61 59 59 61 60 60 62 62 61 61 61 61 56 60 60 60 59 58 56 57 59 60 66 67 67 66 65 66 66 66 66 65 63 64 63
58 59 59 60 61 61 60 56 59 55 51 56 59 59 60 58 56 53 54 58 62 60 61 63 63 63 63 63 63 63 64 65 65 65 65 65 65 65 64 64 63 63 62
58 59 59 59 63 65 60 56 50 49 46 44 44 52 52 49 48 46 46 49 51 53 62 62 62 62 62 62 63 62 63 63 64 64 64 64 64 63 62 63 62 63 61
58 59 59 58 64 66 65 60 58 53 47 44 43 43 47 48 47 45 46 45 48 53 61 62 61 60 61 61 61 61 60 62 63 62 62 62 62 62 61 62 62 61 62
60 55 59 62 63 66 68 65 65 58 57 61 49 47 44 45 45 44 45 47 58 55 57 62 60 59 63 61 63 62 63 63 62 63 62 63 63 62 63 62 62 62 62
60 60 61 64 65 65 65 65 65 65 62 60 58 51 47 44 44 43 45 57 62 62 60 59 58 58 58 58 58 59 59 59 60 61 64 62 62 64 62 61 60 54 55
62 62 60 64 66 67 69 66 67 65 62 60 58 62 58 56 60 61 60 61 64 63 61 60 59 59 58 58 58 58 58 57 59 59 61 59 61 62 61 60 58 59 60
62 66 63 65 66 64 67 68 64 65 66 64 63 62 55 61 61 63 65 62 65 65 62 61 60 60 60 60 60 59 59 59 59 60 59 59 59 58 58 58 58 57 56
62 62 66 67 66 66 70 71 65 66 65 65 63 59 52 59 61 63 63 64 66 65 67 64 64 63 63 62 61 61 61 61 61 61 61 61 60 59 59 58 58 57 56
62 66 66 67 68 63 64 65 67 65 66 65 66 65 60 61 62 65 65 68 66 65 65 65 68 68 69 64 63 64 66 64 65 62 61 61 60 60 60 59 58 57 57
63 65 65 67 67 67 67 67 68 61 65 65 66 63 63 64 66 68 68 68 65 64 65 65 66 67 68 68 66 65 65 64 63 64 62 61 60 58 59 59 59 59 57
62 63 64 62 63 64 65 65 68 64 70 67 66 65 65 66 65 66 69 69 69 66 65 68 66 67 68 69 68 67 53 45 60 56 62 62 61 60 59 58 58 58 58
58 59 62 61 60 62 62 62 62 62 63 63 66 65 68 69 67 64 64 65 65 66 66 65 67 68 69 68 67 50 39 40 55 52 62 61 59 57 57 58 58 58 60
MSLP
1010.07 1009.99 1010.03 1009.99 1010.00 1009.99 1009.96 1009.73 1009.59 1009.48 1009.39 1009.13 1008.85 1008.95 1009.38 1009.34 1009.64 1010.18 1010.23 1010.69 1011.01 1011.61 1012.05 1012.21 1012.22 1012.33 1012.40 1012.71 1012.94 1013.28 1013.79 1014.16 1014.04 1013.45 1013.44 1013.27 1013.18 1013.13 1012.95 1012.82 1012.82 1012.89 1013.38
1009.98 1009.89 1009.71 1009.44 1009.44 1009.40 1009.34 1009.18 1008.97 1008.79 1008.59 1008.55 1008.30 1008.14 1008.26 1008.43 1008.78 1008.97 1009.12 1009.78 1010.21 1010.46 1010.72 1011.19 1011.55 1011.59 1011.65 1011.79 1011.97 1012.35 1012.56 1012.93 1013.30 1013.14 1013.06 1012.99 1012.99 1012.47 1012.28 1012.30 1012.35 1012.38 1012.75
1009.72 1009.86 1009.92 1009.84 1009.71 1009.34 1008.94 1008.80 1008.53 1008.30 1008.11 1007.79 1007.60 1007.50 1007.42 1007.59 1007.68 1007.81 1008.74 1009.92 1010.61 1010.85 1009.92 1009.81 1010.14 1010.79 1010.92 1011.08 1010.97 1011.24 1011.50 1011.86 1012.24 1012.47 1012.63 1012.58 1012.39 1012.15 1012.13 1012.07 1012.26 1012.42 1012.33
1009.91 1009.84 1009.70 1009.61 1009.38 1008.95 1008.39 1008.22 1008.02 1007.82 1007.64 1007.47 1007.16 1006.87 1006.72 1006.95 1006.69 1006.88 1007.73 1008.59 1009.57 1010.61 1010.35 1009.55 1009.00 1009.47 1009.91 1010.17 1010.34 1010.24 1010.27 1010.68 1011.24 1011.74 1011.98 1012.03 1012.00 1011.61 1011.81 1012.02 1012.39 1012.32 1012.28
1009.66 1009.60 1009.33 1009.05 1008.78 1008.39 1007.99 1007.64 1007.36 1007.26 1007.13 1007.03 1006.62 1006.26 1006.15 1006.25 1006.05 1006.35 1006.60 1007.45 1008.55 1008.96 1009.91 1010.17 1008.92 1008.15 1008.36 1008.91 1009.29 1009.35 1009.44 1009.61 1010.09 1010.77 1011.22 1011.48 1011.57 1011.66 1011.67 1011.61 1011.94 1012.09 1011.95
1009.24 1009.15 1008.83 1008.63 1008.39 1008.05 1007.41 1007.08 1006.76 1006.60 1006.54 1006.40 1005.96 1005.66 1005.57 1005.29 1005.20 1005.66 1005.81 1006.45 1007.72 1008.28 1009.15 1008.80 1007.48 1006.84 1007.10 1007.38 1007.99 1008.27 1008.26 1008.72 1009.02 1009.57 1010.26 1010.64 1010.88 1011.07 1011.13 1011.31 1011.65 1012.13 1012.28
1008.86 1008.69 1008.38 1008.28 1008.05 1007.78 1007.20 1006.64 1006.29 1005.94 1005.86 1005.71 1005.48 1005.03 1004.85 1004.63 1004.40 1004.53 1005.50 1006.08 1006.69 1007.43 1007.26 1007.78 1006.58 1005.68 1005.83 1006.36 1006.87 1007.35 1007.42 1007.57 1007.88 1008.26 1009.05 1009.57 1010.15 1010.35 1010.62 1010.87 1011.15 1011.44 1011.58
1008.57 1008.35 1008.09 1008.09 1007.90 1007.54 1006.96 1006.33 1005.87 1005.58 1005.18 1004.97 1004.94 1004.48 1004.20 1004.11 1003.91 1003.74 1003.94 1003.95 1003.85 1003.38 1001.93 1004.02 1005.48 1004.75 1004.79 1004.89 1005.66 1006.73 1006.93 1006.96 1007.05 1006.94 1007.38 1008.32 1009.06 1009.49 1009.75 1010.07 1010.61 1010.97 1011.05
1008.38 1008.17 1008.04 1007.88 1007.69 1007.36 1006.93 1006.31 1005.61 1005.07 1004.60 1004.53 1004.39 1003.97 1003.60 1003.59 1003.54 1003.65 1003.44 1003.08 1003.07 1003.28 1002.68 999.69 1003.29 1003.73 1003.65 1004.31 1004.82 1005.54 1006.10 1005.95 1006.11 1006.62 1006.99 1007.70 1008.58 1008.78 1009.25 1009.76 1010.28 1010.78 1010.84
1008.10 1008.06 1007.95 1007.68 1007.42 1007.03 1006.71 1006.37 1005.46 1004.82 1004.45 1004.11 1003.72 1003.22 1002.95 1003.04 1003.06 1003.39 1003.59 1003.16 1003.19 1003.08 1002.46 1001.46 1002.13 1002.57 1002.99 1003.91 1004.39 1004.83 1005.23 1005.21 1005.75 1006.68 1007.39 1007.58 1008.11 1008.67 1008.79 1009.32 1009.93 1010.34 1010.54
1007.76 1007.81 1007.76 1007.45 1007.10 1006.68 1006.24 1005.80 1005.08 1004.37 1003.97 1003.73 1003.30 1003.15 1002.79 1003.09 1002.87 1002.84 1003.17 1003.16 1002.83 1002.51 1002.50 1002.03 1001.93 1002.28 1002.94 1003.47 1003.93 1004.28 1004.28 1004.61 1005.34 1005.99 1006.70 1007.42 1007.92 1008.29 1008.80 1009.20 1009.61 1009.73 1010.32
1007.55 1007.59 1007.49 1007.19 1006.82 1006.42 1006.10 1005.39 1004.76 1004.40 1004.26 1004.18 1003.83 1003.38 1003.11 1002.97 1003.20 1003.09 1002.80 1002.88 1002.96 1002.89 1002.48 1002.42 1002.34 1002.47 1003.04 1003.23 1003.89 1004.03 1003.95 1004.15 1004.90 1005.57 1006.24 1006.99 1007.47 1007.98 1008.47 1008.83 1008.96 1009.23 1009.33
1007.47 1007.61 1007.42 1006.92 1006.46 1006.43 1006.13 1005.45 1004.94 1004.55 1004.34 1004.37 1004.18 1003.82 1003.40 1002.90 1003.20 1003.46 1003.38 1003.14 1003.16 1003.19 1002.88 1002.81 1002.85 1002.74 1003.21 1003.53 1003.74 1003.61 1003.63 1004.04 1004.66 1005.26 1005.90 1006.65 1007.07 1007.68 1008.17 1008.66 1008.72 1008.79 1009.04
1007.75 1007.43 1007.23 1007.01 1006.61 1006.16 1005.84 1005.43 1005.36 1004.93 1004.74 1004.70 1004.44 1004.32 1004.06 1003.60 1003.70 1003.76 1003.49 1003.19 1003.17 1003.10 1003.08 1003.32 1003.20 1003.37 1003.58 1003.77 1004.01 1004.04 1004.01 1004.08 1004.40 1005.10 1005.78 1006.31 1006.89 1007.44 1007.87 1008.23 1008.86 1008.99 1009.05
1007.39 1007.33 1007.07 1006.66 1006.61 1006.31 1005.69 1005.53 1005.62 1005.25 1005.38 1005.14 1004.62 1004.42 1004.23 1003.79 1003.89 1004.54 1004.11 1003.71 1003.31 1003.19 1003.43 1003.43 1003.41 1003.54 1003.81 1004.05 1004.23 1004.46 1004.46 1004.59 1004.98 1005.46 1005.95 1006.29 1006.67 1007.20 1007.58 1008.16 1008.52 1008.93 1008.91
1007.31 1007.02 1006.84 1006.34 1005.97 1005.72 1005.40 1005.59 1005.72 1005.40 1005.20 1005.12 1004.81 1004.31 1004.49 1004.38 1004.53 1004.23 1004.13 1003.83 1003.41 1003.51 1003.48 1003.55 1003.72 1003.83 1004.08 1004.30 1004.41 1004.57 1004.70 1004.86 1005.23 1005.61 1005.90 1006.20 1006.64 1007.00 1007.57 1008.17 1008.37 1008.70 1008.83
1007.06 1006.89 1006.47 1005.93 1005.28 1005.04 1004.99 1005.12 1005.17 1005.21 1005.24 1005.21 1005.17 1004.80 1004.29 1004.12 1004.21 1004.27 1004.42 1004.06 1003.78 1003.69 1003.82 1003.90 1004.08 1004.16 1004.29 1004.51 1004.61 1004.68 1004.93 1005.16 1005.34 1005.76 1006.10 1006.44 1006.80 1007.19 1007.62 1007.91 1008.28 1008.48 1008.74
1006.88 1006.73 1006.43 1005.84 1005.47 1004.83 1004.23 1004.06 1004.06 1004.45 1004.68 1004.77 1004.80 1004.80 1004.88 1004.87 1004.73 1004.51 1004.26 1003.99 1004.23 1004.09 1004.18 1004.23 1004.28 1004.30 1004.47 1004.73 1004.89 1005.03 1005.18 1005.34 1005.67 1006.00 1006.20 1006.42 1006.95 1007.33 1007.54 1007.78 1008.07 1008.34 1008.48
1006.45 1006.21 1005.70 1004.78 1004.37 1004.02 1003.67 1003.42 1003.48 1003.54 1003.77 1004.21 1004.65 1004.74 1004.60 1004.54 1004.59 1004.57 1004.32 1004.24 1004.27 1004.13 1004.12 1004.33 1004.44 1004.51 1004.70 1004.95 1005.23 1005.36 1005.51 1005.73 1006.02 1006.12 1006.34 1006.73 1007.05 1007.18 1007.59 1008.07 1008.39 1008.57 1008.80
1005.61 1005.15 1004.53 1004.18 1003.84 1003.68 1003.01 1003.03 1003.44 1002.92 1003.49 1004.03 1004.38 1004.31 1004.22 1004.31 1004.22 1004.22 1004.07 1003.88 1003.73 1003.80 1003.92 1004.15 1004.49 1004.71 1004.90 1005.11 1005.26 1005.38 1005.59 1005.92 1006.07 1006.30 1006.64 1006.78 1006.68 1007.03 1007.50 1008.00 1008.33 1008.59 1008.77
1005.14 1004.48 1004.01 1003.41 1003.30 1003.00 1002.62 1002.44 1002.47 1002.58 1002.72 1003.14 1003.39 1003.45 1003.61 1003.93 1003.89 1003.71 1003.53 1003.63 1003.57 1003.59 1003.80 1004.05 1004.39 1004.60 1004.81 1004.97 1005.15 1005.48 1005.72 1005.92 1006.09 1006.31 1006.51 1006.63 1006.78 1007.15 1007.51 1007.90 1008.06 1008.26 1008.63
1004.87 1004.08 1003.58 1003.05 1002.87 1002.56 1002.33 1001.88 1002.27 1002.29 1002.40 1002.78 1003.12 1003.38 1003.47 1003.66 1003.72 1003.62 1003.43 1003.39 1003.29 1003.13 1003.15 1003.62 1004.08 1004.41 1004.39 1004.43 1004.66 1005.25 1005.62 1005.69 1005.76 1006.04 1006.20 1006.42 1006.67 1007.09 1007.40 1007.70 1007.96 1008.26 1008.48
1005.12 1004.24 1003.36 1002.81 1002.19 1002.25 1002.39 1002.24 1001.91 1002.05 1002.52 1002.65 1002.62 1003.02 1003.22 1003.34 1003.29 1003.12 1002.99 1002.86 1002.97 1003.02 1003.11 1003.36 1003.66 1004.12 1004.12 1004.21 1004.38 1004.45 1004.74 1005.07 1005.36 1005.49 1005.80 1006.15 1006.58 1006.89 1007.02 1007.34 1007.71 1007.90 1008.30
1005.24 1004.48 1003.71 1002.87 1002.49 1002.40 1002.67 1002.32 1001.86 1001.94 1001.91 1002.12 1002.44 1002.74 1002.75 1002.79 1002.77 1002.58 1002.45 1002.58 1002.89 1003.06 1003.23 1003.36 1003.53 1003.51 1003.85 1004.30 1004.36 1004.11 1004.37 1004.68 1004.90 1005.06 1005.49 1005.95 1006.37 1006.57 1006.89 1007.06 1007.48 1007.82 1007.93
1005.68 1005.41 1004.67 1004.45 1003.78 1003.55 1003.97 1003.59 1002.83 1003.01 1001.85 1001.64 1002.03 1002.31 1002.30 1002.32 1002.29 1002.19 1002.30 1002.79 1003.01 1003.45 1003.37 1003.34 1003.55 1003.50 1003.74 1003.92 1004.19 1004.24 1004.60 1004.79 1004.86 1004.96 1005.36 1005.78 1006.16 1006.43 1006.70 1007.09 1007.31 1007.50 1007.68
1006.71 1006.80 1006.76 1006.73 1006.10 1005.02 1004.71 1003.83 1004.36 1003.84 1003.84 1003.49 1003.00 1003.14 1002.59 1002.55 1002.52 1002.54 1002.29 1002.38 1002.71 1002.94 1002.88 1003.14 1003.18 1003.32 1003.56 1003.78 1003.89 1004.25 1004.55 1004.55 1004.84 1004.90 1005.13 1005.67 1006.00 1006.27 1006.60 1006.86 1006.82 1006.93 1007.13
Wind_Speed
6 6 7 7 6 6 7 6 9 11 12 15 16 15 12 16 15 15 16 16 16 14 13 13 15 13 10 8 7 5 6 6 8 3 4 5 5 6 6 6 6 5 5
5 6 6 7 7 7 7 8 8 10 10 14 14 15 14 12 13 17 18 15 15 17 16 15 15 11 14 11 9 10 8 8 6 10 4 3 5 5 6 4 4 4 4
2 3 5 7 8 7 6 7 7 7 8 11 12 15 15 12 16 16 9 4 13 18 17 17 15 14 13 10 11 10 8 7 8 6 5 4 4 3 4 2 4 5 4
4 6 7 7 8 8 7 7 8 7 7 9 12 14 14 15 15 13 12 13 11 12 18 16 17 17 17 14 12 13 10 9 8 7 6 4 4 4 3 3 3 3 4
4 6 7 7 7 8 8 8 8 6 9 10 13 13 12 12 11 11 14 17 21 26 24 25 20 20 22 18 11 12 11 10 6 7 4 3 4 2 4 3 4 2 3
5 7 7 8 8 8 10 9 8 8 9 10 13 13 11 10 13 16 14 16 23 15 19 23 28 20 20 21 20 16 15 11 10 8 4 5 6 4 3 5 4 2 3
6 7 6 7 7 7 8 8 8 9 8 10 12 11 9 9 14 19 22 16 19 19 19 18 20 17 18 16 18 18 15 16 13 11 9 8 5 6 5 4 4 4 4
7 6 5 5 6 7 8 8 9 8 9 9 10 10 6 3 9 10 19 18 8 8 11 14 21 18 13 16 14 14 11 11 12 11 12 7 6 6 5 5 5 3 1
5 3 5 5 6 7 8 10 8 7 7 9 9 9 6 5 9 11 8 9 14 15 14 42 29 15 13 16 13 14 12 13 10 12 10 11 11 10 6 4 3 2 1
4 4 5 6 6 6 8 12 7 7 7 7 8 8 9 7 10 8 7 4 6 5 6 5 12 9 12 12 12 9 11 11 9 7 2 4 8 7 9 4 4 4 3
2 2 5 6 6 8 7 6 7 6 5 6 4 3 3 5 1 6 5 3 3 2 5 3 3 9 11 10 11 7 10 8 8 7 7 5 4 5 4 4 4 3 3
2 1 4 5 6 8 11 7 7 5 4 5 4 4 2 3 3 1 2 8 1 2 1 3 0 5 7 7 7 8 9 8 6 6 6 4 4 4 4 4 4 5 5
3 3 4 4 7 9 10 7 4 5 2 3 4 4 4 3 3 3 4 7 7 2 2 2 9 9 9 5 7 10 8 5 6 6 6 4 3 3 4 3 2 4 4
2 2 3 5 8 11 9 3 3 3 3 1 1 2 2 3 4 4 4 2 5 4 5 3 4 7 8 7 5 3 3 3 5 5 4 4 4 4 3 3 3 3 3
3 3 3 3 5 10 3 1 3 1 2 2 1 1 1 2 1 4 2 3 1 4 5 2 2 3 4 3 3 3 3 3 3 3 3 3 3 3 3 3 3 2 3
4 3 4 4 7 7 4 3 0 3 4 6 9 4 1 4 4 5 6 5 7 9 2 2 2 3 3 2 3 3 2 3 3 2 3 3 4 4 4 3 2 3 3
5 5 4 6 7 8 4 5 5 1 2 1 4 7 2 7 3 5 6 9 6 5 1 2 2 3 3 2 2 2 2 2 3 3 3 3 3 2 3 3 4 3 4
5 8 8 8 9 9 6 3 5 4 4 3 3 2 2 0 2 1 5 4 2 2 2 3 3 4 4 4 4 3 4 5 4 4 3 4 4 3 2 3 2 3 3
6 7 9 10 7 7 5 4 3 5 6 3 1 3 3 5 5 3 3 1 2 3 5 4 3 3 4 4 4 4 4 4 3 3 4 3 4 3 3 4 4 4 3
8 12 11 7 6 5 7 2 4 4 4 4 3 4 3 2 1 2 3 2 3 4 5 5 4 4 4 4 3 4 4 3 3 3 3 4 4 4 5 5 4 4 3
5 8 10 5 4 4 4 4 5 4 6 6 6 5 9 4 5 3 2 2 3 5 5 5 4 4 4 4 4 4 4 4 4 4 4 3 4 3 4 4 4 3 5
7 6 5 5 4 2 1 6 4 4 4 3 2 3 9 3 3 3 3 2 4 5 6 5 4 4 5 5 6 5 5 5 5 4 3 4 5 4 4 3 4 3 4
8 10 8 4 4 2 4 3 2 5 4 5 5 4 4 5 5 5 5 5 4 3 4 4 5 6 6 4 4 5 5 6 4 5 5 5 4 3 3 3 2 3 4
10 10 12 5 1 5 8 5 2 1 1 4 6 5 5 5 5 6 6 6 4 4 3 2 3 5 6 3 3 3 5 5 5 5 7 5 4 3 1 2 3 3 3
10 11 14 13 10 11 5 5 6 8 4 5 2 4 4 3 3 4 5 5 5 3 3 4 3 7 9 9 7 9 10 9 6 8 5 5 3 3 2 2 4 4 4
8 9 8 8 9 9 11 13 11 12 14 11 9 8 5 3 4 2 3 6 5 4 5 5 6 9 8 6 8 10 7 10 8 9 6 4 3 1 1 2 5 4 5
Wind_Direction
230 229 239 243 248 265 268 257 252 247 244 237 235 240 217 226 215 217 215 215 217 222 225 218 223 214 216 211 185 181 187 182 234 251 232 236 233 226 247 225 205 192 225
323 298 263 245 249 243 245 259 268 265 247 246 250 244 240 230 209 216 215 215 215 219 217 219 225 215 214 200 189 194 196 200 206 248 252 255 226 242 237 215 224 214 233
312 339 318 311 279 258 271 277 277 278 276 261 248 246 248 237 240 218 195 247 301 259 226 216 213 215 215 201 197 192 195 198 205 217 231 212 240 233 251 219 212 233 235
341 322 307 292 288 273 269 263 265 263 273 281 272 255 248 246 244 227 184 207 239 270 275 236 217 212 214 207 208 209 196 189 194 212 231 235 220 251 177 170 244 233 239
291 281 276 276 272 278 274 263 260 267 277 278 277 272 255 244 243 234 184 189 240 245 260 265 244 213 206 204 204 210 199 198 174 192 198 187 221 220 196 195 200 220 255
276 270 276 283 279 270 275 269 256 255 264 271 276 275 256 245 239 206 193 181 206 235 252 261 244 210 205 196 204 205 198 191 198 196 186 195 217 209 191 185 184 181 272
270 274 270 279 283 275 272 276 261 251 260 271 277 275 262 252 234 211 194 188 198 202 213 238 247 226 208 204 204 204 201 198 194 189 195 200 182 197 180 179 185 187 211
270 282 295 326 311 299 290 282 268 257 252 264 274 277 259 278 218 232 214 208 208 271 298 242 253 226 204 198 196 206 212 215 209 199 193 178 180 187 161 171 189 218 302
278 337 332 320 311 314 317 297 285 284 277 265 264 263 246 236 210 232 227 208 206 219 211 249 222 215 201 203 194 197 208 222 206 191 165 160 177 171 168 146 182 163 223
276 327 328 312 307 305 317 304 280 257 256 257 255 249 235 244 212 230 227 215 235 221 242 214 199 194 213 202 203 193 203 207 191 158 147 138 172 161 148 158 142 190 172
118 336 320 323 321 314 297 283 294 305 336 346 0 32 80 340 69 230 225 277 250 235 262 246 226 212 212 201 204 207 211 172 193 170 169 161 167 175 170 168 169 138 157
79 8 323 333 326 323 303 300 306 316 19 351 333 330 1 106 309 301 212 226 258 297 284 241 151 146 162 186 178 190 164 136 147 147 150 163 168 165 166 172 166 150 147
71 10 328 342 325 311 295 307 326 333 29 34 352 347 329 32 62 332 303 227 206 202 351 45 123 108 116 113 147 145 143 138 151 149 151 152 158 156 143 164 137 143 138
329 3 5 348 308 310 293 295 318 343 358 334 300 347 7 34 19 351 338 85 133 106 100 89 107 95 77 95 80 53 85 117 136 146 161 148 138 157 174 138 165 175 149
296 300 311 301 296 294 291 1 319 344 344 320 26 12 36 39 89 283 337 341 346 112 120 114 94 88 98 94 95 99 94 94 112 129 144 166 173 169 138 146 157 173 157
286 290 289 302 289 286 228 240 13 39 357 328 309 234 128 96 129 45 15 22 31 33 55 91 81 93 105 120 123 124 138 144 145 142 143 152 159 147 149 158 149 190 197
265 278 272 281 298 298 262 202 225 238 260 284 14 14 339 148 107 32 356 352 59 50 321 142 126 140 135 130 128 119 148 185 119 131 150 156 134 146 160 175 193 191 232
266 287 284 269 270 275 276 273 210 175 207 215 206 230 113 151 232 64 349 353 64 95 218 106 103 96 85 79 83 78 81 78 87 120 106 116 124 145 121 91 98 135 118
247 250 254 265 260 274 261 254 232 198 195 168 127 288 207 234 253 290 357 30 18 118 103 105 111 98 97 104 108 96 104 103 112 139 106 112 141 112 113 123 112 93 99
268 267 259 246 259 260 277 88 304 174 154 146 179 218 189 291 258 227 227 237 163 153 133 136 148 143 143 144 138 130 111 125 124 118 142 151 126 118 121 130 139 139 161
276 288 292 250 245 255 276 278 171 194 156 175 207 211 182 189 230 252 265 70 155 135 141 143 147 161 176 168 159 166 165 168 172 184 177 161 144 137 167 165 175 149 123
287 277 300 267 247 220 276 291 169 199 157 159 145 183 197 217 261 250 258 296 195 176 161 161 166 180 193 180 164 171 192 188 176 159 165 165 152 177 174 174 159 158 143
340 343 310 309 263 338 304 299 359 139 182 199 170 192 186 216 226 215 212 204 204 166 168 169 164 191 206 209 211 172 161 181 162 143 105 90 134 150 127 131 147 132 143
8 358 1 308 3 39 359 316 55 321 155 148 183 196 199 221 240 218 185 172 178 171 167 178 106 118 114 132 117 114 117 128 126 103 108 100 86 56 109 133 155 180 177
32 17 20 13 8 33 293 338 336 324 232 242 186 202 164 155 75 140 137 154 134 262 223 166 144 145 145 148 147 133 133 120 122 125 104 93 69 35 341 247 218 195 172
40 31 31 22 11 29 17 26 18 40 32 20 34 4 35 28 353 30 155 168 172 179 159 180 181 174 172 159 158 145 155 146 154 150 139 145 157 244 350 297 295 205 195